Temperature
12 12 12 12 12 12 12 12 12 12 12 11 11 11 11 11 11 11 11 11 11 11 11 11 11 11 11 11 11 11 11 11 11 11 11 11 11 11 10 10 10 10 10
12 12 12 12 12 12 12 11 11 11 11 11 11 11 11 11 10 11 11 11 11 11 11 11 11 11 11 11 10 10 10 10 10 10 10 10 10 10 10 10 10 10 10
11 11 11 11 11 11 11 11 11 11 11 11 11 10 10 10 10 10 10 10 10 10 11 11 10 11 10 10 10 10 10 10 10 10 10 10 10 10 10 10 10 9 9
11 11 11 11 11 11 11 11 11 11 11 10 10 10 10 10 10 10 10 10 10 10 10 10 10 10 10 10 10 10 10 10 10 10 10 10 9 9 9 9 9 9 9
10 11 11 11 11 11 11 10 10 10 10 10 10 10 10 10 10 10 10 10 10 10 10 10 10 10 10 10 10 10 10 10 10 9 9 9 9 9 9 9 9 9 9
10 10 10 10 10 10 10 10 10 10 10 10 9 9 9 9 9 9 9 9 9 10 10 9 10 10 10 10 9 9 9 9 9 9 9 9 9 9 9 9 9 9 8
10 10 10 10 10 10 10 10 10 9 9 9 9 8 8 9 9 9 9 9 9 9 9 9 9 9 9 9 9 9 9 9 9 9 8 8 8 8 8 8 8 8 8
9 9 10 10 10 10 10 10 9 9 9 9 8 8 8 8 8 8 8 8 9 9 9 8 9 9 9 9 9 9 9 8 8 8 8 8 8 8 8 8 8 8 8
9 9 9 9 9 9 9 9 9 9 9 8 8 8 8 8 7 8 8 8 8 8 8 8 8 8 8 8 8 8 8 8 8 8 8 8 8 7 7 7 7 7 7
9 8 9 9 9 9 9 9 9 9 9 8 8 8 8 8 8 7 7 8 8 8 8 8 7 7 8 8 8 8 8 8 8 7 7 7 7 7 7 7 7 7 7
8 8 8 8 8 8 8 8 8 8 8 8 8 8 8 8 8 8 7 7 7 7 7 7 7 7 7 7 7 8 7 7 7 7 7 7 7 7 7 7 7 7 7
8 8 8 8 8 8 8 8 8 8 8 8 7 7 7 7 8 8 8 7 7 7 7 7 7 7 7 7 7 7 7 7 7 7 7 7 6 6 6 6 6 6 6
7 7 7 8 7 7 7 7 7 7 7 7 7 7 7 7 7 7 7 7 7 7 7 7 7 6 6 6 6 6 7 7 7 7 6 6 6 6 6 6 6 6 6
7 7 7 7 7 7 7 7 7 7 7 7 7 7 7 7 7 7 7 7 6 6 6 7 6 6 6 6 6 6 6 6 6 6 6 6 6 6 6 6 6 6 5
7 7 7 7 7 6 6 6 6 6 6 6 6 6 6 6 6 6 6 6 6 6 6 6 6 6 5 5 5 5 5 6 6 6 6 6 6 6 5 5 5 5 5
6 6 6 6 6 6 6 6 6 6 6 6 6 6 6 6 6 6 6 6 5 5 5 6 5 5 5 5 5 5 5 5 5 5 5 5 5 5 5 5 5 5 5
6 6 6 6 6 6 5 5 5 5 5 5 5 5 5 5 5 5 5 5 5 5 5 5 5 5 5 5 5 4 4 5 5 5 5 5 5 5 5 4 4 4 4
6 6 6 5 5 5 5 5 5 5 5 5 5 5 5 5 5 5 5 5 5 5 5 5 5 5 4 4 4 4 4 4 4 4 4 4 4 4 4 4 4 4 4
5 5 5 5 5 5 5 5 5 5 5 5 5 5 5 5 5 5 5 4 4 4 4 4 4 4 4 4 4 4 4 4 4 4 4 4 4 3 3 3 3 3 3
5 5 5 5 5 5 5 5 5 5 5 5 5 5 4 4 4 4 4 4 4 4 4 4 4 4 4 3 3 3 3 3 3 3 3 3 3 3 3 3 3 3 3
5 5 5 4 4 4 4 4 4 4 4 4 4 4 4 4 4 4 4 4 4 3 3 3 3 3 3 3 3 2 2 3 3 2 3 3 3 2 2 2 2 2 2
4 4 4 4 4 4 4 4 4 4 4 4 4 4 3 3 3 3 3 3 3 3 3 3 3 3 3 3 2 2 2 2 2 2 2 2 2 2 2 2 1 1 1
4 4 4 4 4 4 4 4 4 4 3 3 3 3 3 3 3 3 3 2 2 2 2 2 2 2 2 2 2 2 1 1 1 1 1 1 2 1 1 1 1 1 1
4 4 3 3 3 3 3 3 3 3 3 3 3 3 3 3 2 2 2 2 2 2 2 2 2 2 2 1 1 1 1 1 1 1 0 0 1 1 1 1 0 0 -0
3 3 3 3 3 3 3 3 2 2 2 2 2 2 2 2 2 2 2 2 1 1 1 1 1 1 1 1 1 1 0 -0 -0 0 0 -1 -0 -0 -0 0 -0 -0 -1
3 2 2 2 2 2 2 2 2 2 2 2 2 2 2 2 1 1 1 1 1 1 1 1 1 1 1 1 0 0 -0 -0 -1 -1 -1 -1 -1 -2 -2 -1 -1 -1 -1
Wind_Speed
4 4 3 4 5 5 5 5 5 5 5 5 6 6 6 6 6 6 6 6 6 5 5 5 5 6 6 5 5 5 5 5 6 6 6 6 6 6 5 5 5 4 5
5 4 3 3 4 4 5 5 5 4 3 4 4 5 6 6 6 6 6 6 6 6 5 5 4 4 4 5 5 4 4 4 4 4 4 4 4 4 5 5 4 4 4
6 5 4 3 3 5 6 5 5 5 3 3 3 4 5 5 6 6 6 6 6 6 5 5 4 4 4 4 4 4 4 3 3 3 3 3 3 3 3 3 4 4 4
7 6 4 3 5 6 5 4 3 3 3 3 2 2 3 4 5 5 5 6 6 5 5 5 4 4 4 3 3 3 2 2 2 2 2 2 2 2 2 3 3 3 4
7 6 5 4 6 5 4 3 2 2 3 3 2 2 2 2 2 4 4 4 4 5 5 4 4 4 3 3 3 2 2 1 1 1 1 2 1 2 2 2 2 2 3
7 6 4 5 6 4 3 3 3 2 2 3 3 3 2 1 2 2 2 3 3 4 4 3 3 3 3 2 2 2 2 1 1 1 1 1 1 1 2 2 2 2 3
7 6 4 5 5 5 5 5 3 3 2 2 3 2 2 2 2 1 1 2 2 3 4 3 3 3 3 2 1 1 2 1 1 1 1 2 2 3 3 3 3 4 4
6 6 5 5 5 5 5 5 4 3 1 2 2 2 1 1 1 0 0 1 1 2 2 1 2 3 2 2 2 2 2 1 1 2 2 3 4 4 4 4 4 5 5
5 5 6 6 6 6 6 6 6 5 3 1 1 2 3 3 1 1 1 0 0 0 1 1 1 1 1 1 1 2 2 2 2 3 3 4 5 5 6 5 5 6 6
5 6 6 6 6 6 6 7 6 4 6 4 1 1 1 2 2 1 1 1 1 1 1 1 1 1 1 1 1 1 2 3 3 4 5 5 6 7 7 7 7 7 8
5 5 6 6 6 5 6 6 5 5 4 4 3 1 2 1 1 2 2 2 2 2 2 2 2 2 2 2 2 2 3 3 5 5 6 6 7 7 8 8 9 9 9
4 5 6 6 5 5 6 6 6 7 5 4 3 2 2 2 2 2 2 2 2 2 2 2 2 3 3 3 4 4 3 4 5 6 7 7 7 8 8 9 9 10 10
4 6 5 6 5 5 6 6 6 6 6 6 5 3 3 2 2 2 2 1 1 2 2 2 3 3 3 3 4 4 4 5 6 7 8 8 8 8 8 9 10 11 11
6 6 6 6 6 6 6 6 5 5 5 5 5 4 3 2 2 2 3 3 1 1 2 3 1 3 3 4 5 5 4 6 6 7 8 8 8 8 8 10 10 11 12
5 6 7 7 6 6 6 6 5 6 6 5 5 4 3 2 2 2 2 3 4 3 4 3 2 2 3 3 4 4 5 6 7 8 8 8 8 8 9 10 10 11 11
6 7 7 7 7 7 7 6 5 6 6 5 4 5 4 3 3 2 3 2 2 3 3 3 3 2 3 3 4 5 6 7 8 8 8 9 9 9 9 10 10 11 11
7 8 8 7 8 7 7 7 6 6 6 5 5 6 6 4 4 3 3 2 2 2 3 2 2 2 2 2 2 4 5 6 7 8 8 9 9 9 9 9 9 10 10
7 7 8 8 8 7 8 8 8 7 8 8 7 6 6 4 5 4 4 4 3 3 3 3 2 2 2 2 2 2 4 5 6 7 8 8 8 8 8 9 9 9 9
7 7 7 8 8 8 8 8 8 8 9 8 8 8 7 6 5 4 5 4 3 3 2 3 3 2 2 1 1 2 3 3 5 6 7 7 7 8 8 9 10 10 10
8 8 8 8 8 8 8 8 8 8 7 7 7 7 7 8 7 7 5 5 4 3 3 2 2 2 2 1 1 2 3 2 3 5 5 5 6 9 9 9 10 11 10
7 7 7 7 7 7 7 8 8 8 7 6 5 6 6 7 8 7 6 6 6 4 3 2 2 2 2 2 2 2 3 3 3 2 2 3 5 6 8 10 10 11 11
6 7 7 7 7 6 9 10 8 7 7 7 6 5 5 5 6 7 8 8 8 6 5 4 3 4 4 4 3 2 2 2 4 2 2 4 3 4 7 8 10 11 12
5 6 6 6 7 7 9 10 10 7 6 6 6 5 4 4 5 5 5 6 6 7 8 6 5 6 5 5 4 3 4 4 5 3 2 4 3 4 6 9 11 11 11
5 5 5 6 5 6 8 10 9 6 5 5 6 6 6 5 5 5 5 4 4 5 6 5 6 6 5 5 6 5 4 3 3 3 2 4 3 4 5 7 10 10 10
4 4 5 5 5 5 7 8 7 5 5 5 5 5 5 5 7 6 5 4 4 3 4 5 6 5 6 6 5 2 2 2 4 3 2 3 3 3 4 4 7 8 9
3 3 3 4 4 4 6 7 7 4 4 4 3 4 5 6 7 7 6 5 5 4 2 2 2 3 2 4 5 5 4 3 3 3 2 2 2 2 4 3 3 6 7
Wind_Direction
141 131 124 120 117 118 116 112 110 108 107 108 110 107 100 96 91 81 78 88 97 102 104 107 111 115 109 107 103 95 89 84 84 83 78 73 69 62 61 61 57 53 49
143 137 132 124 122 126 123 124 124 118 111 112 105 106 105 100 93 89 82 79 81 89 95 96 99 114 116 115 110 104 90 88 88 85 80 73 68 60 57 55 52 49 49
147 140 141 136 134 131 120 113 107 107 102 98 95 103 103 102 102 96 91 87 82 76 81 81 79 88 99 110 115 106 101 97 91 93 80 73 67 56 50 47 45 43 42
155 144 145 146 139 131 126 124 121 102 96 98 94 93 101 103 101 100 98 96 92 83 72 69 70 72 86 94 96 103 116 116 97 90 79 72 63 51 47 41 32 35 29
161 152 154 148 141 130 126 132 118 117 120 105 92 76 76 94 106 105 101 100 101 97 87 75 67 63 75 91 87 75 66 92 81 65 59 61 58 38 20 4 1 4 3
166 157 149 147 145 141 137 131 121 92 116 120 95 64 41 49 83 99 110 104 100 101 99 95 81 69 65 84 80 59 37 50 48 37 35 30 13 334 314 314 313 316 322
168 162 156 156 156 158 157 143 126 109 91 99 87 56 21 40 69 78 104 106 91 92 96 99 99 92 76 66 50 32 22 6 357 353 343 337 325 317 305 305 304 304 304
174 171 165 169 168 159 153 150 137 127 116 131 119 114 82 350 354 32 156 177 152 98 101 105 105 99 89 66 27 6 347 341 324 315 305 306 308 304 301 295 297 302 303
182 176 175 171 171 170 173 172 163 150 159 179 133 145 156 202 244 302 292 226 209 173 159 134 138 115 119 85 28 357 337 321 303 297 291 293 295 296 289 291 295 296 297
182 181 177 176 175 176 177 179 174 165 159 170 170 54 121 146 157 198 289 296 286 249 232 203 203 213 225 237 293 318 312 296 292 291 289 288 290 293 294 290 290 292 295
186 183 179 178 180 181 180 178 174 170 168 172 170 151 100 65 121 162 214 258 282 259 252 229 212 225 240 250 262 277 286 279 280 285 286 285 287 291 295 297 294 291 291
191 188 180 180 182 181 182 182 180 179 178 172 168 161 157 161 181 169 181 217 242 260 260 247 229 228 243 259 255 264 265 276 278 279 281 283 287 290 294 297 299 299 295
197 197 186 184 184 183 177 175 179 183 181 178 182 187 177 176 169 166 163 182 217 265 263 252 231 226 248 268 263 264 264 273 276 278 280 283 286 288 292 293 293 296 298
198 189 187 184 184 181 175 172 178 185 183 184 188 184 181 182 174 174 169 160 176 263 260 254 254 224 242 257 273 271 272 276 276 277 278 281 285 289 290 290 291 291 294
189 186 186 184 183 181 176 173 182 188 185 189 188 187 189 189 185 180 171 169 166 204 239 237 237 242 249 255 285 287 278 276 274 274 276 279 284 285 286 288 289 290 292
187 184 187 185 182 182 178 178 183 187 182 188 186 185 192 188 184 182 179 182 178 183 225 231 231 250 244 256 283 285 285 287 278 275 275 279 280 278 280 283 286 289 289
187 188 187 184 183 183 179 179 185 182 183 189 190 191 196 186 186 188 179 178 183 176 215 257 250 262 237 248 288 284 288 288 285 281 278 279 277 277 277 280 285 288 287
190 189 186 183 184 185 182 182 186 187 189 194 195 193 198 191 187 189 187 190 196 191 193 239 251 247 250 246 241 266 284 285 287 285 286 287 282 281 281 284 285 289 290
190 189 187 186 187 189 188 190 190 192 197 199 197 197 199 189 197 198 193 194 197 200 191 213 249 253 257 253 265 277 276 280 291 294 290 287 288 290 289 287 286 287 287
192 193 194 191 189 191 192 193 193 195 198 201 201 201 199 198 201 198 199 198 194 191 190 205 241 251 254 259 224 262 290 285 290 294 287 288 294 295 291 289 288 287 284
192 190 191 190 187 192 197 195 194 195 193 197 202 202 203 207 208 203 202 196 187 191 195 216 235 246 250 244 238 242 270 293 286 255 278 284 288 291 292 288 284 281 280
182 182 189 189 191 200 202 198 194 192 191 193 198 202 206 207 214 217 215 206 198 196 204 211 229 236 244 236 226 239 258 285 282 239 264 286 263 270 276 280 280 278 279
182 184 187 190 199 202 197 197 195 189 190 194 197 197 205 211 209 206 216 220 222 226 220 209 220 232 230 220 210 230 237 248 260 249 250 273 266 269 274 279 283 282 279
187 187 188 192 196 205 196 194 191 182 184 192 197 198 199 202 204 202 200 212 225 233 232 221 219 229 229 216 209 218 228 261 276 260 213 255 266 270 281 277 280 282 287
185 187 187 186 190 204 194 186 178 175 185 193 196 197 197 201 215 206 195 207 231 253 251 240 244 245 241 228 209 189 203 248 281 274 221 230 262 285 282 271 270 278 287
180 178 181 185 190 200 193 185 179 179 186 191 192 198 208 211 215 208 197 199 220 237 223 236 264 261 240 220 217 207 201 222 260 268 228 225 254 292 291 272 265 276 282
Height
1520 1521 1523 1525 1526 1528 1529 1530 1532 1533 1534 1536 1537 1539 1540 1542 1542 1544 1544 1545 1546 1547 1547 1548 1549 1549 1550 1550 1550 1551 1551 1552 1552 1552 1552 1552 1552 1552 1552 1552 1552 1552 1552
1518 1519 1521 1523 1525 1526 1528 1529 1530 1532 1533 1535 1536 1537 1539 1540 1541 1542 1543 1544 1545 1546 1546 1547 1548 1548 1548 1549 1549 1549 1550 1550 1551 1551 1551 1551 1551 1551 1551 1551 1551 1551 1551
1515 1517 1519 1521 1523 1524 1526 1527 1529 1530 1532 1533 1534 1536 1537 1538 1540 1541 1542 1543 1543 1544 1545 1545 1546 1547 1547 1547 1548 1548 1548 1549 1549 1550 1550 1550 1550 1550 1550 1550 1550 1550 1549
1513 1515 1517 1519 1521 1522 1524 1525 1527 1528 1530 1531 1532 1534 1535 1537 1538 1539 1540 1541 1542 1543 1543 1544 1545 1545 1546 1546 1546 1547 1547 1547 1548 1548 1548 1548 1548 1548 1548 1548 1548 1548 1548
1510 1512 1514 1516 1518 1520 1521 1523 1524 1526 1527 1529 1531 1532 1533 1534 1536 1537 1538 1539 1540 1541 1541 1542 1543 1543 1544 1544 1545 1545 1545 1545 1546 1546 1547 1547 1547 1547 1547 1547 1547 1546 1546
1508 1510 1512 1513 1515 1517 1518 1520 1522 1524 1525 1527 1528 1529 1531 1532 1533 1534 1536 1537 1538 1539 1539 1540 1541 1541 1542 1542 1543 1543 1543 1544 1544 1544 1545 1545 1545 1545 1545 1545 1545 1544 1544
1504 1507 1508 1510 1512 1514 1515 1517 1519 1521 1523 1524 1526 1527 1528 1529 1530 1532 1533 1534 1535 1536 1537 1538 1538 1539 1540 1540 1541 1541 1541 1541 1542 1542 1542 1543 1543 1543 1543 1543 1542 1542 1542
1500 1503 1505 1506 1508 1510 1512 1514 1516 1518 1520 1521 1523 1524 1525 1527 1527 1529 1530 1531 1532 1533 1534 1535 1536 1536 1537 1538 1538 1538 1539 1539 1539 1540 1540 1540 1540 1540 1540 1540 1540 1539 1539
1496 1499 1501 1503 1505 1507 1508 1510 1512 1514 1516 1518 1520 1522 1523 1523 1524 1526 1526 1528 1529 1530 1531 1532 1533 1533 1534 1535 1535 1536 1536 1536 1537 1537 1537 1537 1538 1537 1537 1537 1537 1536 1536
1492 1495 1497 1499 1501 1503 1505 1507 1509 1511 1513 1514 1517 1518 1520 1520 1521 1522 1524 1525 1526 1527 1528 1529 1529 1530 1531 1532 1532 1533 1533 1533 1533 1534 1534 1534 1534 1534 1534 1534 1533 1533 1532
1488 1490 1492 1495 1497 1499 1501 1503 1505 1507 1509 1511 1512 1514 1516 1517 1518 1519 1519 1521 1522 1523 1524 1525 1526 1527 1528 1528 1529 1529 1530 1530 1530 1530 1530 1530 1530 1530 1530 1530 1529 1529 1529
1483 1485 1488 1490 1492 1495 1496 1498 1500 1503 1505 1508 1509 1511 1512 1514 1514 1516 1516 1517 1518 1520 1521 1522 1522 1524 1524 1525 1525 1526 1526 1526 1526 1527 1527 1526 1526 1526 1526 1525 1525 1525 1524
1478 1480 1483 1485 1488 1490 1492 1494 1496 1499 1501 1504 1506 1507 1509 1510 1512 1513 1514 1514 1515 1516 1517 1518 1519 1520 1520 1521 1521 1522 1522 1522 1522 1523 1523 1522 1522 1521 1521 1521 1521 1520 1519
1473 1476 1478 1481 1483 1486 1488 1490 1493 1495 1497 1500 1502 1504 1505 1507 1509 1510 1511 1512 1512 1512 1513 1514 1515 1516 1516 1517 1517 1517 1518 1518 1518 1518 1518 1518 1517 1517 1516 1516 1516 1515 1514
1469 1471 1474 1476 1479 1481 1484 1486 1489 1491 1493 1496 1498 1500 1502 1503 1505 1506 1507 1509 1510 1509 1509 1510 1511 1512 1512 1513 1513 1513 1513 1513 1514 1513 1513 1513 1513 1512 1511 1511 1511 1510 1509
1465 1467 1469 1471 1474 1477 1479 1482 1485 1487 1489 1491 1493 1496 1498 1499 1501 1502 1503 1505 1506 1506 1506 1506 1507 1508 1508 1509 1509 1509 1508 1509 1509 1509 1508 1508 1508 1507 1506 1506 1505 1504 1503
1460 1463 1465 1467 1469 1472 1475 1477 1480 1482 1484 1487 1489 1491 1493 1495 1496 1498 1499 1500 1502 1502 1502 1502 1503 1504 1504 1504 1504 1504 1504 1504 1504 1504 1503 1503 1503 1502 1502 1501 1500 1499 1498
1456 1458 1460 1462 1465 1468 1470 1473 1476 1478 1480 1482 1484 1487 1489 1490 1492 1493 1495 1496 1497 1498 1499 1499 1499 1499 1499 1500 1500 1499 1500 1499 1499 1499 1498 1498 1497 1497 1496 1496 1495 1494 1492
1452 1454 1456 1458 1460 1463 1466 1468 1471 1474 1476 1478 1480 1482 1484 1486 1487 1489 1490 1491 1492 1494 1494 1495 1495 1495 1495 1495 1494 1495 1495 1494 1494 1494 1493 1493 1492 1492 1491 1490 1489 1488 1487
1448 1450 1452 1454 1456 1459 1462 1464 1467 1469 1471 1473 1475 1477 1479 1481 1482 1484 1485 1486 1487 1489 1489 1490 1490 1490 1490 1490 1490 1489 1489 1489 1489 1489 1488 1487 1487 1486 1486 1484 1483 1482 1481
1443 1445 1447 1449 1452 1455 1457 1459 1462 1464 1466 1469 1470 1472 1474 1476 1478 1479 1480 1481 1482 1483 1484 1485 1485 1485 1485 1485 1484 1484 1484 1483 1483 1483 1482 1482 1482 1481 1480 1479 1477 1476 1475
1439 1441 1443 1445 1447 1450 1452 1455 1457 1459 1461 1463 1465 1467 1469 1471 1473 1474 1476 1477 1478 1479 1479 1480 1480 1479 1480 1480 1479 1479 1479 1477 1476 1478 1477 1476 1476 1474 1474 1473 1471 1470 1469
1435 1436 1438 1440 1442 1445 1448 1450 1453 1455 1457 1459 1461 1463 1464 1466 1468 1469 1471 1472 1472 1473 1475 1475 1475 1474 1474 1475 1474 1474 1474 1473 1472 1472 1471 1469 1469 1468 1468 1466 1465 1464 1463
1430 1432 1434 1436 1438 1440 1443 1446 1448 1450 1452 1454 1456 1458 1459 1461 1462 1464 1465 1466 1467 1468 1469 1469 1470 1469 1470 1470 1469 1469 1468 1468 1467 1467 1466 1464 1462 1461 1461 1460 1459 1458 1457
1426 1428 1430 1432 1434 1436 1439 1441 1443 1445 1447 1449 1451 1453 1454 1456 1458 1459 1460 1461 1462 1463 1464 1464 1465 1464 1465 1464 1464 1464 1463 1462 1460 1460 1460 1459 1456 1455 1453 1453 1452 1451 1450
1422 1424 1426 1428 1430 1432 1435 1437 1439 1441 1443 1445 1447 1448 1450 1451 1453 1454 1455 1456 1456 1457 1458 1459 1459 1459 1459 1459 1459 1459 1458 1458 1456 1455 1454 1454 1451 1450 1447 1445 1445 1445 1444